Wind_Speed
23 24 25 24 24 26 28 29 30 30 30 29 30 31 31 31 30 30 30 29 30 31 32 32 32 33 34 35 36 36 37 37 39 40 41 42 43 44 44 45 45 45 45 45
26 26 26 27 26 25 26 28 30 30 30 30 31 32 32 32 32 32 32 31 31 32 32 33 33 34 35 36 36 37 38 38 39 40 41 42 43 44 45 45 45 45 45 45
28 28 29 29 26 26 27 27 28 30 30 31 32 33 33 33 34 34 34 34 33 33 34 34 34 35 35 36 37 38 38 39 40 41 42 43 43 44 45 45 45 45 45 45
27 28 30 28 27 27 28 28 29 30 30 31 32 32 33 34 34 35 35 35 36 36 35 35 35 36 37 37 37 38 39 40 41 41 42 43 44 44 44 44 44 44 45 45
27 28 29 28 28 28 29 29 29 30 31 31 31 32 32 33 33 34 34 35 36 37 37 37 36 37 38 39 39 39 40 40 41 41 42 42 43 43 43 43 44 44 45 45
28 28 29 28 28 29 30 31 30 31 31 31 32 32 32 32 33 34 35 35 35 36 36 37 36 36 37 38 39 40 40 41 42 42 43 43 42 43 43 44 44 44 45 45
27 28 29 28 28 29 30 30 31 31 32 32 32 33 33 33 33 33 33 34 35 35 35 35 36 37 37 38 39 39 40 41 41 41 41 41 42 42 43 43 44 44 45 44
26 28 28 28 29 29 30 31 32 32 33 33 32 33 33 33 33 33 33 34 34 35 35 36 36 37 38 38 39 39 39 40 40 40 40 41 42 42 43 43 44 44 44 43
26 27 28 28 29 30 31 31 32 33 34 34 33 33 33 33 34 35 35 35 35 36 36 36 37 38 38 39 39 39 40 40 40 40 41 41 42 42 43 44 44 44 44 44
26 26 27 28 29 30 31 32 33 34 34 35 34 33 33 33 33 34 35 35 36 36 36 36 37 38 39 39 40 40 39 39 39 39 40 40 41 42 42 43 43 44 43 43
27 27 28 29 30 31 31 32 32 33 34 34 34 33 33 33 33 34 34 35 36 36 37 37 38 38 39 39 38 38 38 38 38 38 39 39 39 40 41 41 41 42 42 42
28 28 29 30 30 31 32 32 32 32 32 32 32 32 32 33 34 34 34 34 35 35 36 37 37 38 37 37 37 37 37 36 37 38 38 38 39 39 39 39 40 40 40 40
28 29 30 30 30 31 31 32 31 31 31 31 32 32 32 33 33 34 34 34 35 35 36 36 36 36 36 36 36 36 36 37 37 38 38 39 39 39 39 39 39 40 40 40
29 30 30 30 30 30 30 30 31 31 31 31 31 32 32 32 33 33 34 34 35 35 36 36 35 35 35 35 36 36 37 37 38 38 39 40 39 39 40 40 40 40 40 40
29 30 30 30 30 30 30 30 30 31 31 31 31 31 31 32 32 32 33 33 34 35 35 35 35 35 35 35 35 35 36 37 37 38 38 39 39 39 39 40 40 40 40 41
28 29 29 29 29 29 30 30 30 30 30 30 30 30 31 31 31 32 33 33 33 33 33 33 34 34 35 35 35 36 36 37 37 37 38 38 39 39 39 39 39 40 40 41
27 28 28 28 29 29 29 28 28 28 29 29 29 30 30 30 31 32 32 32 32 32 32 32 32 32 33 34 35 35 36 36 36 37 37 38 38 38 38 38 39 40 40 41
27 28 28 28 28 28 28 28 28 27 27 28 28 29 30 30 31 31 31 31 31 31 31 31 31 32 32 33 34 34 35 35 36 36 36 37 37 37 37 38 38 39 40 40
27 27 27 26 26 27 27 27 26 26 27 28 28 29 29 30 31 31 31 31 30 30 31 31 31 32 32 33 34 34 35 35 35 36 36 36 37 37 37 37 38 38 38 38
25 25 25 25 25 25 25 25 26 26 27 28 28 29 30 30 31 31 31 31 31 31 31 31 32 32 33 33 33 34 34 35 36 36 35 36 36 37 37 37 37 37 37 37
25 25 25 25 25 25 25 26 26 27 28 28 29 30 30 30 30 30 30 31 30 31 31 31 31 32 32 33 33 33 34 35 35 35 35 35 36 36 36 36 37 37 36 36
24 24 24 25 25 26 27 27 28 28 29 30 30 31 31 31 31 30 30 30 30 30 31 31 31 32 32 32 33 33 33 34 34 34 35 35 36 36 36 36 36 36 36 36
24 24 25 25 26 27 27 28 29 29 30 31 31 32 32 31 31 30 30 30 30 31 31 30 31 31 31 31 32 32 32 33 34 34 34 34 35 35 35 35 35 35 34 34
24 25 25 26 27 27 28 29 29 30 31 31 31 32 31 31 30 30 30 30 29 30 30 30 30 31 31 31 32 32 32 32 33 33 33 33 34 34 34 34 34 33 33 33
24 25 26 26 27 28 29 29 30 31 31 31 31 30 30 29 29 28 28 28 28 29 29 30 31 31 32 32 32 32 32 32 32 32 32 33 33 33 33 33 33 33 33 33
26 26 27 28 29 29 30 30 31 31 31 30 30 29 29 28 28 28 28 28 28 29 29 30 31 31 31 31 31 32 32 32 32 33 33 33 33 33 33 33 33 33 33 33
27 28 29 29 30 30 30 30 30 30 30 30 29 29 28 27 27 27 27 28 28 29 30 30 30 31 31 31 32 32 32 32 32 33 33 33 34 34 33 33 33 33 32 31
Wind_Direction
267 266 267 268 267 265 263 261 263 264 264 264 266 267 267 266 266 266 265 265 265 266 267 267 267 266 266 267 268 268 269 271 272 272 272 273 273 273 274 276 277 277 278 279
265 266 269 269 269 269 268 265 264 265 265 264 265 266 266 266 267 267 265 265 266 267 268 269 269 269 268 268 269 269 270 272 272 273 273 274 274 274 275 276 276 277 278 278
268 269 270 272 272 272 272 272 269 267 266 265 265 266 266 267 267 268 267 266 267 267 268 269 270 270 270 270 270 270 271 272 273 273 274 274 275 275 276 276 277 277 277 277
272 271 273 275 273 273 273 273 272 269 267 266 267 269 269 269 268 268 268 269 269 270 269 269 271 271 271 272 273 273 273 274 275 275 275 275 276 276 277 276 277 277 277 277
276 275 275 274 274 274 273 273 273 272 269 268 269 270 271 270 269 269 270 270 271 270 270 271 272 273 273 273 273 273 274 275 276 276 277 278 278 278 278 277 278 278 277 278
277 277 278 278 276 275 274 273 273 273 273 273 272 272 272 271 270 270 270 271 272 272 272 273 273 274 274 275 275 275 276 276 277 278 278 278 278 278 278 278 278 278 279 279
278 278 279 281 279 277 276 277 275 275 275 274 274 274 273 272 272 271 271 272 273 273 274 275 274 275 275 276 276 277 277 277 278 278 278 278 278 278 278 278 278 278 279 279
280 280 281 282 279 278 278 277 277 277 276 276 276 276 275 273 272 272 273 273 274 274 275 276 276 276 276 277 277 278 279 279 278 278 278 278 278 278 279 279 279 280 279 278
282 283 284 282 281 280 280 279 278 278 278 277 277 277 276 275 273 273 274 275 275 275 276 277 276 277 277 278 279 280 281 280 279 279 279 279 279 279 279 280 280 280 280 279
284 284 284 283 283 282 281 279 278 279 279 278 278 278 277 276 275 275 275 276 277 277 277 278 277 278 279 279 280 280 281 281 281 281 281 281 281 282 281 281 281 281 280 279
285 286 285 284 284 285 284 281 280 280 280 279 278 277 277 278 278 278 277 277 278 278 279 279 280 280 280 280 280 280 281 281 282 282 283 283 282 283 283 283 282 281 281 280
287 286 287 287 285 285 284 283 282 281 281 279 279 279 279 279 280 279 278 279 279 279 279 280 281 281 280 280 280 280 281 282 283 284 284 284 284 284 284 284 283 282 281 280
286 287 287 288 287 286 286 285 284 283 282 281 280 280 280 280 280 281 280 280 280 280 281 281 282 281 280 279 280 280 281 282 284 284 284 284 285 286 286 285 284 283 282 281
284 285 286 287 287 288 288 288 286 284 283 282 281 281 281 281 281 282 282 282 282 282 283 283 282 281 280 280 280 281 282 283 284 285 285 285 286 286 286 286 285 284 283 282
284 284 285 286 287 288 289 289 288 286 284 284 283 282 282 283 283 284 284 285 285 285 285 283 282 281 280 280 281 282 283 284 285 285 285 286 286 286 286 286 285 284 283 282
284 284 285 287 287 287 288 289 289 288 285 284 284 284 284 284 285 286 286 285 286 286 286 284 283 282 281 281 282 283 284 285 285 285 286 286 287 287 287 287 286 285 284 283
285 286 287 288 288 288 289 291 291 290 288 287 286 287 286 286 287 288 288 287 287 287 286 285 284 283 283 283 284 284 285 285 286 287 287 287 288 288 288 288 287 286 285 284
286 286 287 288 290 290 291 292 292 292 291 289 289 289 288 287 288 289 290 289 288 287 287 286 286 286 286 286 286 286 286 287 287 288 288 289 289 289 289 289 289 288 286 285
288 288 289 289 290 291 292 293 293 293 292 291 290 290 290 289 290 291 292 292 291 289 289 288 288 288 288 288 288 287 287 288 288 289 289 289 290 290 290 291 291 289 288 286
289 289 289 290 290 291 292 293 293 294 295 294 292 293 293 293 294 294 294 293 292 291 290 290 290 290 290 289 289 289 288 289 289 289 290 290 291 291 291 291 292 291 290 288
290 290 290 290 290 291 293 294 295 297 297 296 296 296 297 297 296 295 294 293 293 293 293 293 293 292 292 292 291 291 291 291 290 290 291 292 292 292 292 292 293 292 292 290
290 290 290 290 291 293 295 296 296 297 299 299 299 298 298 298 297 295 295 294 294 294 293 294 294 294 294 294 294 293 293 293 293 293 293 293 292 292 292 293 293 293 292 291
291 291 292 292 293 295 297 298 299 299 300 301 301 300 299 297 296 295 295 295 295 294 294 295 295 296 296 296 296 295 295 295 295 295 295 295 294 294 294 294 294 294 293 292
293 294 295 295 295 297 299 300 301 302 303 303 303 302 301 298 296 295 294 294 294 294 294 295 296 296 297 297 298 298 297 297 297 297 296 296 296 296 296 295 294 295 294 293
295 296 297 298 298 299 300 302 302 304 304 304 304 303 302 300 298 297 296 295 295 295 295 296 297 297 298 298 298 299 299 299 298 298 298 298 297 297 297 296 296 295 295 294
297 298 298 299 300 300 301 302 303 304 305 304 303 303 302 301 300 299 298 298 298 298 299 299 299 299 299 299 300 300 300 299 299 298 298 298 298 298 297 297 297 296 296 295
299 299 300 299 300 301 303 304 305 305 306 305 304 303 303 302 301 301 300 300 300 300 301 302 302 301 301 300 300 301 301 300 300 299 299 300 299 299 298 298 297 297 296 296
Height
5567 5566 5566 5567 5568 5568 5568 5568 5569 5570 5571 5572 5571 5571 5571 5571 5571 5571 5572 5572 5572 5572 5572 5572 5572 5572 5572 5572 5572 5572 5572 5572 5572 5571 5571 5570 5569 5568 5567 5566 5565 5564 5562 5561
5561 5560 5560 5560 5561 5561 5561 5561 5561 5562 5563 5563 5562 5562 5562 5562 5562 5563 5562 5563 5563 5563 5563 5563 5563 5563 5562 5562 5562 5562 5562 5561 5561 5560 5559 5558 5557 5556 5555 5554 5552 5551 5550 5548
5554 5554 5553 5554 5556 5555 5554 5554 5554 5554 5555 5554 5554 5554 5554 5554 5554 5553 5553 5554 5554 5554 5554 5553 5553 5553 5552 5552 5552 5551 5551 5550 5549 5548 5547 5546 5545 5544 5543 5541 5540 5539 5537 5535
5546 5547 5546 5550 5548 5548 5547 5547 5546 5546 5546 5546 5546 5545 5545 5545 5545 5545 5545 5544 5544 5544 5544 5544 5543 5543 5542 5542 5541 5540 5540 5539 5538 5537 5535 5534 5533 5531 5530 5529 5527 5526 5524 5522
5540 5538 5539 5541 5541 5540 5539 5539 5539 5538 5537 5537 5537 5537 5537 5536 5536 5536 5535 5535 5534 5534 5534 5533 5533 5532 5532 5531 5530 5529 5528 5527 5526 5525 5523 5522 5520 5519 5517 5516 5514 5513 5511 5510
5533 5531 5531 5534 5533 5532 5532 5532 5532 5530 5529 5529 5528 5528 5529 5527 5527 5526 5526 5525 5525 5524 5523 5523 5522 5521 5520 5520 5519 5518 5516 5515 5514 5512 5511 5509 5508 5506 5505 5503 5501 5500 5498 5497
5526 5524 5524 5526 5525 5524 5525 5524 5523 5521 5521 5520 5519 5519 5519 5518 5517 5517 5516 5515 5515 5514 5513 5512 5511 5510 5509 5508 5507 5506 5504 5503 5501 5500 5498 5497 5495 5493 5492 5490 5489 5487 5486 5484
5519 5518 5520 5518 5517 5517 5516 5514 5513 5512 5511 5511 5510 5509 5508 5508 5508 5507 5506 5505 5504 5503 5503 5502 5500 5499 5498 5497 5496 5494 5493 5491 5489 5487 5485 5484 5482 5480 5479 5477 5476 5474 5472 5471
5513 5514 5512 5510 5509 5508 5506 5505 5504 5503 5502 5501 5500 5500 5499 5498 5498 5497 5496 5495 5494 5493 5492 5491 5489 5487 5486 5485 5483 5482 5480 5478 5477 5475 5473 5471 5469 5467 5466 5464 5462 5460 5459 5457
5506 5506 5505 5503 5501 5499 5498 5496 5495 5494 5493 5492 5491 5490 5489 5488 5487 5486 5485 5484 5483 5482 5480 5479 5477 5476 5474 5472 5470 5469 5467 5466 5464 5462 5460 5459 5457 5454 5452 5451 5449 5447 5445 5444
5499 5499 5497 5496 5494 5491 5489 5488 5486 5485 5483 5482 5481 5480 5479 5478 5477 5476 5474 5473 5472 5470 5469 5467 5466 5464 5461 5460 5458 5456 5455 5453 5452 5450 5448 5446 5444 5442 5440 5437 5435 5433 5432 5430
5492 5491 5489 5487 5485 5483 5481 5479 5477 5476 5474 5473 5472 5471 5469 5468 5467 5466 5464 5463 5461 5459 5458 5456 5454 5451 5449 5448 5446 5445 5443 5442 5440 5438 5436 5434 5432 5430 5427 5425 5422 5420 5418 5417
5484 5482 5480 5479 5477 5474 5472 5470 5469 5467 5465 5464 5463 5461 5460 5458 5457 5456 5454 5452 5450 5448 5446 5444 5442 5440 5438 5436 5435 5433 5432 5430 5428 5426 5424 5422 5420 5417 5415 5413 5410 5407 5405 5404
5475 5473 5472 5470 5469 5466 5464 5462 5460 5458 5457 5455 5453 5452 5450 5449 5447 5445 5444 5442 5440 5437 5435 5433 5431 5429 5427 5425 5424 5422 5420 5418 5417 5415 5412 5410 5408 5405 5402 5400 5398 5395 5393 5391
5467 5465 5464 5462 5460 5458 5456 5454 5452 5450 5448 5446 5444 5443 5441 5439 5438 5436 5434 5431 5429 5427 5424 5422 5420 5418 5416 5414 5413 5411 5409 5407 5405 5403 5400 5398 5395 5393 5390 5387 5385 5383 5380 5378
5459 5457 5455 5454 5452 5450 5448 5445 5443 5441 5439 5437 5436 5434 5432 5430 5428 5426 5424 5421 5419 5417 5414 5412 5409 5407 5405 5404 5402 5400 5397 5395 5393 5391 5388 5386 5383 5380 5378 5375 5372 5370 5368 5366
5451 5449 5447 5446 5444 5442 5440 5438 5435 5433 5431 5429 5427 5425 5424 5422 5419 5417 5414 5412 5409 5407 5404 5402 5399 5397 5395 5393 5391 5388 5386 5384 5381 5379 5376 5374 5371 5368 5365 5362 5360 5357 5355 5352
5443 5441 5440 5438 5436 5434 5432 5430 5428 5426 5423 5421 5419 5417 5415 5413 5411 5408 5405 5402 5399 5397 5394 5392 5389 5387 5384 5382 5380 5377 5375 5372 5370 5367 5365 5362 5359 5356 5353 5350 5347 5344 5342 5339
5435 5433 5431 5430 5428 5426 5424 5422 5420 5418 5416 5413 5411 5409 5406 5404 5402 5399 5396 5393 5390 5387 5385 5382 5379 5376 5374 5371 5369 5366 5364 5361 5359 5356 5353 5350 5347 5344 5341 5338 5335 5332 5329 5326
5427 5425 5424 5422 5421 5419 5417 5415 5413 5410 5408 5405 5403 5400 5398 5395 5392 5389 5386 5383 5380 5378 5375 5372 5369 5366 5363 5360 5358 5355 5352 5350 5347 5344 5341 5338 5335 5332 5329 5326 5323 5320 5316 5314
5420 5418 5417 5415 5413 5412 5409 5407 5405 5402 5400 5397 5394 5391 5389 5386 5383 5380 5377 5374 5371 5368 5365 5362 5359 5356 5353 5350 5347 5344 5341 5339 5336 5333 5330 5327 5324 5320 5317 5314 5311 5308 5305 5302
5413 5411 5409 5408 5406 5404 5402 5399 5397 5394 5391 5388 5385 5382 5379 5376 5373 5370 5367 5364 5361 5358 5355 5352 5349 5346 5342 5339 5336 5333 5331 5328 5325 5321 5318 5315 5312 5309 5306 5302 5299 5296 5293 5290
5405 5404 5402 5400 5398 5396 5394 5391 5388 5386 5383 5379 5376 5373 5370 5366 5363 5361 5358 5355 5352 5349 5345 5342 5339 5336 5332 5329 5326 5323 5320 5317 5314 5310 5307 5304 5301 5297 5294 5291 5288 5285 5282 5279
5398 5396 5394 5392 5390 5388 5385 5383 5380 5377 5373 5370 5367 5363 5360 5357 5353 5350 5348 5345 5342 5339 5336 5333 5329 5326 5323 5320 5316 5313 5310 5306 5303 5300 5296 5293 5290 5286 5283 5280 5277 5274 5271 5268
5391 5389 5387 5385 5382 5380 5377 5374 5371 5368 5364 5361 5357 5354 5350 5347 5344 5341 5338 5335 5332 5329 5326 5323 5320 5317 5313 5310 5306 5303 5299 5296 5293 5289 5286 5283 5279 5276 5273 5269 5266 5263 5260 5257
5384 5382 5379 5377 5374 5371 5368 5365 5362 5359 5355 5352 5348 5345 5342 5338 5335 5332 5329 5326 5323 5320 5317 5314 5310 5307 5303 5300 5297 5293 5290 5286 5283 5279 5276 5272 5269 5265 5262 5259 5255 5252 5249 5246
5376 5373 5371 5368 5365 5362 5360 5357 5353 5350 5347 5343 5340 5336 5333 5330 5327 5324 5321 5318 5314 5311 5308 5304 5301 5297 5294 5290 5287 5283 5280 5276 5273 5269 5266 5262 5258 5255 5252 5248 5245 5242 5239 5236